Weather History for Sheridan, WY

Change the Weather History Date:

Saturday, October 20, 2012

  Actual Average Record
Temperature  
Mean Temperature 57 °F 44 °F  
Max Temperature 70 °F 59 °F 85 °F (1947)
Min Temperature 43 °F 30 °F 7 °F (1932)
Degree Days  
Heating Degree Days 8 21  
Month to date heating degree days 348 351  
Since 1 July heating degree days 498 654  
Cooling Degree Days 0 0  
Month to date cooling degree days 0 0  
Year to date cooling degree days 664 418  
Growing Degree Days 8 (Base 50)    
Moisture  
Dew Point 35 °F    
Average Humidity 55    
Maximum Humidity 82    
Minimum Humidity 27    
Precipitation  
Precipitation 0.00 in 0.04 in 0.54 in (1928)
Month to date precipitation 0.72 1.03  
Year to date precipitation 7.71 12.51  
Sea Level Pressure  
Sea Level Pressure 29.58 in    
Wind  
Wind Speed 7 mph (NW)    
Max Wind Speed 24 mph    
Max Gust Speed 32 mph    
Visibility 10 miles    
Events      
T = Trace of Precipitation, MM = Missing Value Source: NWS Daily Summary

Daily Weather History Graph

Daily Weather History Graph

Search for Another Location

Airport:

Trip Planner

Search our weather history database for the weather conditions in past years. The results will help you decide how hot, cold, wet, or windy it might be!

Date:

Astronomy

Oct. 20, 2012 Rise Set
Actual Time 7:30 AM MDT 6:13 PM MDT
Civil Twilight 7:00 AM MDT 6:43 PM MDT
Nautical Twilight 6:26 AM MDT 7:17 PM MDT
Astronomical Twilight 5:52 AM MDT 7:51 PM MDT
Moon 1:15 PM MDT 10:56 PM MDT
Length of Visible Light 11h 42m
Length of Day
10h 43m
Waxing Crescent, 35% of the Moon is Illuminated
Oct 20
Waxing Crescent
Oct 21
First Quarter
Oct 29
Full
Nov 6
Last Quarter
Nov 13
New

Hourly Weather History & Observations

Time (MDT) Temp. Windchill Dew Point Humidity Pressure Visibility Wind Dir Wind Speed Gust Speed Precip Events Conditions
12:53 AM 50.0 °F - 30.9 °F 48% 29.61 in 10.0 mi Calm Calm - N/A   Clear
1:53 AM 53.1 °F - 30.9 °F 43% 29.58 in 10.0 mi NNW 4.6 mph - N/A   Clear
2:53 AM 45.0 °F - 33.1 °F 63% 29.59 in 10.0 mi Calm Calm - N/A   Clear
3:53 AM 46.0 °F 44.8 °F 32.0 °F 58% 29.59 in 10.0 mi South 3.5 mph - N/A   Clear
4:53 AM 45.0 °F 43.5 °F 33.1 °F 63% 29.58 in 10.0 mi SSW 3.5 mph - N/A   Mostly Cloudy
5:53 AM 51.1 °F - 33.1 °F 50% 29.56 in 10.0 mi South 8.1 mph - N/A   Clear
6:53 AM 55.9 °F - 32.0 °F 40% 29.55 in 10.0 mi SE 6.9 mph - N/A   Clear
7:53 AM 55.0 °F - 32.0 °F 42% 29.53 in 10.0 mi SSE 6.9 mph - N/A   Clear
8:53 AM 55.9 °F - 37.0 °F 49% 29.54 in 10.0 mi Calm Calm - N/A   Clear
9:53 AM 62.1 °F - 36.0 °F 38% 29.51 in 10.0 mi NNE 6.9 mph - N/A   Clear
10:53 AM 64.9 °F - 33.1 °F 31% 29.52 in 10.0 mi NW 16.1 mph - N/A   Partly Cloudy
11:53 AM 68.0 °F - 33.1 °F 27% 29.53 in 10.0 mi North 4.6 mph - N/A   Clear
12:53 PM 68.0 °F - 33.1 °F 27% 29.52 in 10.0 mi Variable 3.5 mph - N/A   Scattered Clouds
1:53 PM 68.0 °F - 34.0 °F 28% 29.49 in 10.0 mi Variable 4.6 mph - N/A   Scattered Clouds
2:53 PM 68.0 °F - 34.0 °F 28% 29.50 in 10.0 mi North 3.5 mph - N/A   Overcast
3:53 PM 66.9 °F - 34.0 °F 30% 29.50 in 10.0 mi NE 3.5 mph - N/A   Clear
4:53 PM 66.0 °F - 34.0 °F 30% 29.51 in 10.0 mi Calm Calm - N/A   Clear
5:53 PM 62.1 °F - 36.0 °F 38% 29.52 in 10.0 mi ESE 4.6 mph - N/A   Overcast
6:53 PM 62.1 °F - 32.0 °F 32% 29.51 in 10.0 mi SW 10.4 mph - N/A   Mostly Cloudy
7:53 PM 53.1 °F - 37.0 °F 55% 29.61 in 10.0 mi NW 13.8 mph - N/A   Clear
8:53 PM 50.0 °F - 41.0 °F 71% 29.68 in 10.0 mi NW 20.7 mph 32.2 mph N/A   Clear
9:53 PM 48.0 °F - 42.1 °F 80% 29.71 in 10.0 mi NW 9.2 mph - N/A   Scattered Clouds
10:53 PM 46.9 °F - 41.0 °F 80% 29.74 in 10.0 mi NW 12.7 mph - N/A   Overcast
11:30 PM 46.4 °F 43.5 °F 41.0 °F 81% 29.79 in 10.0 mi NNW 5.8 mph - N/A   Overcast
11:53 PM 46.9 °F - 41.0 °F 80% 29.74 in 10.0 mi NW 5.8 mph - N/A   Overcast